Flag for Norway Weather past 2 weeks in Fredrikstad, Norway

Now
39 °F

Chilly.


Feels Like: 39 °F
Forecast: 45 / 54 °F
Wind: 2 mph from North

Location: Rygge

Current Time: Sep 23, 2014 at 2:47:33 AM

Latest Report: Sep 23, 2014 at 1:50 AM


Visibility: N/A

Pressure: 30.07 "Hg

Humidity: 87%

Dew point: 36 °F

Location of FredrikstadLocation

Historic Weather in Fredrikstad — Graph

°F

Fredrikstad temperature yesterday

Maximum temperature yesterday: 55 °F (at 2:20 PM)
Minimum temperature yesterday: 43 °F (at 11:20 PM)
Average temperature yesterday: 50 °F

Past Weeks' High & Low Weather Summary

 TemperatureHumidityPressure
High68 °F (Sep 13, 2:50 PM)100% (Sep 8, 4:20 AM)30.48 "Hg (Sep 8, 4:20 AM)
Low37 °F (Sep 23, 1:20 AM)41% (Sep 22, 2:20 PM)29.77 "Hg (Sep 9, 2:20 AM)
Average55 °F80%30.14 "Hg
* Reported Sep 8 1:20 AM — Sep 23 1:20 AM, Fredrikstad, Weather by CustomWeather, © 2014

Note: Actual official high and low records may vary slightly from our data, if they occured in-between our weather recording intervals... More about our weather records

Advertising

Fredrikstad weather history for previous 24 hours

 ConditionsComfort  
Time TempWeatherWind HumidityBarometerVisibility
1:20 AM
Sep 23
37 °FChilly.3 mph87%30.07 "HgN/A
12:50 AM41 °FQuite cool.3 mph81%30.07 "HgN/A
12:20 AM41 °FQuite cool.2 mph81%30.07 "HgN/A
11:50 PM
Sep 22
43 °FQuite cool.2 mph71%30.07 "HgN/A
11:20 PM43 °FQuite cool.2 mph76%30.07 "HgN/A
10:50 PM45 °FClear.2 mph71%30.07 "HgN/A
10:20 PM45 °FClear.6 mph66%30.07 "Hg10 mi
9:50 PM46 °FClear.6 mph62%30.07 "Hg10 mi
9:20 PM45 °FClear.3 mph66%30.07 "Hg10 mi
8:50 PM46 °FClear.2 mph62%30.04 "Hg10 mi
8:20 PM48 °FClear.7 mph58%30.04 "Hg10 mi
7:50 PM48 °FSunny.6 mph58%30.04 "Hg10 mi
7:20 PM50 °FPassing clouds.6 mph54%30.04 "HgN/A
6:50 PM52 °FSunny.8 mph50%30.01 "Hg10 mi
6:20 PM52 °FSunny.9 mph47%30.01 "Hg10 mi
5:50 PM54 °FPassing clouds.8 mph47%30.01 "HgN/A
5:20 PM55 °FPassing clouds.10 mph41%30.01 "HgN/A
4:50 PM55 °FSunny.13 mph41%29.98 "Hg10 mi
4:20 PM55 °FPassing clouds.13 mph41%30.01 "HgN/A
3:50 PM55 °FPassing clouds.14 mph41%30.01 "HgN/A
3:20 PM55 °FPassing clouds.16 mph41%30.01 "HgN/A
2:50 PM55 °FSunny.15 mph41%30.01 "Hg10 mi
2:20 PM55 °FPassing clouds.14 mph41%30.01 "HgN/A
1:50 PM54 °FSunny.16 mph44%30.01 "Hg10 mi
1:20 PM54 °FPassing clouds.20 mph44%30.01 "HgN/A
12:50 PM52 °FPassing clouds.20 mph47%30.01 "HgN/A
12:20 PM52 °FPassing clouds.21 mph47%30.01 "HgN/A
11:50 AM52 °FSunny.16 mph50%29.98 "Hg10 mi
11:20 AM52 °FPassing clouds.20 mph50%29.98 "HgN/A
10:50 AM50 °FPassing clouds.22 mph54%29.98 "HgN/A
10:20 AM50 °FSunny.23 mph54%29.98 "Hg10 mi
9:50 AM50 °FPassing clouds.22 mph58%29.95 "HgN/A
9:20 AM50 °FSunny.16 mph54%29.95 "Hg10 mi
8:50 AM48 °FPassing clouds.16 mph62%29.95 "HgN/A
8:20 AM48 °FSunny.16 mph58%29.92 "Hg10 mi
7:50 AM46 °FPassing clouds.18 mph62%29.92 "HgN/A
7:20 AM48 °FPassing clouds.18 mph58%29.92 "HgN/A
6:50 AM48 °FPassing clouds.20 mph58%29.89 "HgN/A
6:20 AM48 °FClear.20 mph58%29.89 "Hg10 mi
5:50 AM48 °FMostly cloudy.23 mph58%29.89 "HgN/A
5:20 AM48 °FOvercast.21 mph58%29.86 "HgN/A
4:50 AM48 °FOvercast.18 mph58%29.86 "HgN/A
4:20 AM48 °FPartly cloudy.21 mph58%29.86 "HgN/A
3:50 AM48 °FMostly cloudy.17 mph58%29.86 "HgN/A
3:20 AM46 °FPassing clouds.16 mph62%29.86 "HgN/A
2:50 AM46 °FCool.15 mph62%29.86 "HgN/A
2:20 AM48 °FCool.17 mph58%29.86 "HgN/A
Weather by CustomWeather, © 2014

See weather overviewHow to use our weather pages